Location: Grasslands National Park East Block
(49.0708°N, 106.5295°W)
Time: 22:17:36
(UTC-06:00)

Vanguard 1 - Pass Details

Date: 29 September 2019
Orbit: 653 x 3830 km, 34.3° (Epoch: 14 October)

Event Time Altitude Azimuth Distance (km) Brightness Sun altitude
Rises 08:31:42 0° 279° (W) 7,761 14.0 13.4°
Reaches altitude 10° 08:41:32 10° 259° (W) 6,208 13.7 14.9°
Maximum altitude 08:48:38 13° 237° (WSW) 5,357 13.6 16.0°
Drops below altitude 10° 08:54:39 10° 213° (SSW) 5,064 13.7 16.9°
Sets 09:00:55 0° 189° (S) 5,365 14.1 17.8°
